| time (UTC) | temp F | wind direction | speed MPH | gust MPH | rain 1hr in | rain 24hr in | rain mn in | humidity % | barometer mb |
| 20260507072404 | 49 | 94 | 0.0 | 0.0 | 0.00 | 0.00 | 0.01 | 92 | 984.0 |
| 20260507071903 | 49 | 90 | 0.0 | 1.0 | 0.00 | 0.00 | 0.01 | 92 | 984.0 |
| 20260507071402 | 49 | 92 | 1.0 | 1.0 | 0.00 | 0.00 | 0.01 | 92 | 984.0 |
| 20260507070902 | 49 | 96 | 0.0 | 0.0 | 0.07 | 0.00 | 0.01 | 91 | 984.0 |
| 20260507070402 | 49 | 96 | 0.0 | 1.0 | 0.07 | 0.00 | 0.01 | 90 | 984.0 |
| 20260507065902 | 50 | 111 | 0.0 | 1.0 | 0.00 | 0.00 | 0.00 | 89 | 984.0 |
| 20260507065402 | 50 | 112 | 0.0 | 1.0 | 0.00 | 0.00 | 0.00 | 88 | 984.0 |
| 20260507064902 | 50 | 62 | 2.0 | 3.0 | 0.00 | 0.00 | 0.00 | 87 | 984.0 |
| 20260507064402 | 50 | 102 | 0.0 | 2.0 | 0.00 | 0.00 | 0.00 | 88 | 984.0 |
| 20260507063902 | 50 | 107 | 0.0 | 0.0 | 0.00 | 0.00 | 0.00 | 90 | 983.0 |
| 20260507063402 | 50 | 107 | 0.0 | 0.0 | 0.00 | 0.00 | 0.00 | 88 | 983.0 |
| 20260507062902 | 50 | 107 | 0.0 | 1.0 | 0.00 | 0.00 | 0.00 | 89 | 983.0 |
| 20260507062403 | 50 | 106 | 0.0 | 1.0 | 0.00 | 0.00 | 0.00 | 89 | 983.0 |
| 20260507061903 | 50 | 97 | 0.0 | 0.0 | 0.00 | 0.00 | 0.00 | 90 | 983.0 |
| 20260507061402 | 50 | 97 | 0.0 | 1.0 | 0.00 | 0.00 | 0.00 | 90 | 983.0 |
| 20260507060902 | 50 | 97 | 0.0 | 1.0 | 0.00 | 0.00 | 0.00 | 90 | 984.0 |
| 20260507060402 | 50 | 97 | 0.0 | 0.0 | 0.00 | 0.00 | 0.00 | 91 | 984.0 |
| 20260507055904 | 50 | 97 | 0.0 | 0.0 | 0.00 | 0.00 | 0.00 | 90 | 984.0 |
| 20260507055403 | 50 | 94 | 1.0 | 2.0 | 0.00 | 0.00 | 0.00 | 91 | 984.0 |
| 20260507054903 | 51 | 119 | 1.0 | 1.0 | 0.00 | 0.00 | 0.00 | 90 | 984.0 |
| 20260507054402 | 51 | 119 | 0.0 | 1.0 | 0.00 | 0.00 | 0.00 | 90 | 984.0 |
| 20260507053902 | 51 | 119 | 0.0 | 0.0 | 0.00 | 0.00 | 0.00 | 90 | 984.0 |
| 20260507053403 | 51 | 119 | 0.0 | 1.0 | 0.00 | 0.00 | 0.00 | 90 | 984.0 |
| 20260507052903 | 51 | 116 | 0.0 | 0.0 | 0.00 | 0.00 | 0.00 | 90 | 984.0 |
| 20260507052402 | 51 | 132 | 0.0 | 1.0 | 0.00 | 0.00 | 0.00 | 90 | 984.0 |
| 20260507051902 | 51 | 132 | 0.0 | 0.0 | 0.00 | 0.00 | 0.00 | 90 | 984.0 |
| 20260507051404 | 51 | 132 | 0.0 | 1.0 | 0.00 | 0.00 | 0.00 | 90 | 984.0 |
| 20260507050903 | 51 | 132 | 0.0 | 0.0 | 0.00 | 0.00 | 0.00 | 90 | 984.0 |
| 20260507050403 | 51 | 132 | 0.0 | 1.0 | 0.00 | 0.00 | 0.00 | 91 | 984.0 |
| 20260507045903 | 51 | 132 | 0.0 | 0.0 | 0.00 | 0.00 | 0.00 | 91 | 984.0 |
| 20260507045403 | 51 | 132 | 0.0 | 0.0 | 0.00 | 0.00 | 0.00 | 91 | 984.0 |
| 20260507044902 | 52 | 132 | 0.0 | 1.0 | 0.00 | 0.00 | 0.00 | 90 | 984.0 |
| 20260507044402 | 52 | 132 | 1.0 | 1.0 | 0.00 | 0.00 | 0.00 | 91 | 984.0 |
| 20260507043903 | 52 | 132 | 0.0 | 0.0 | 0.00 | 0.00 | 0.00 | 91 | 984.0 |
| 20260507043402 | 52 | 132 | 0.0 | 1.0 | 0.00 | 0.00 | 0.00 | 91 | 984.0 |
| 20260507042902 | 52 | 131 | 1.0 | 2.0 | 0.00 | 0.00 | 0.00 | 90 | 984.0 |
| 20260507042402 | 53 | 124 | 1.0 | 0.0 | 0.00 | 0.00 | 0.00 | 92 | 984.0 |
| 20260507041904 | 53 | 124 | 1.0 | 1.0 | 0.00 | 0.00 | 0.00 | 91 | 984.0 |
| 20260507041402 | 53 | 124 | 0.0 | 0.0 | 0.00 | 0.00 | 0.00 | 90 | 984.0 |
| 20260507040902 | 53 | 115 | 0.0 | 1.0 | 0.00 | 0.00 | 0.00 | 91 | 984.0 |
| 20260507040402 | 53 | 115 | 0.0 | 0.0 | 0.00 | 0.00 | 0.00 | 90 | 984.0 |
| 20260507035903 | 53 | 115 | 0.0 | 1.0 | 0.00 | 0.00 | 0.22 | 90 | 984.0 |
| 20260507035403 | 54 | 115 | 1.0 | 1.0 | 0.05 | 0.00 | 0.22 | 90 | 984.0 |
| 20260507034902 | 54 | 156 | 1.0 | 3.0 | 0.05 | 0.00 | 0.22 | 90 | 984.0 |
| 20260507034402 | 54 | 182 | 1.0 | 3.0 | 0.00 | 0.00 | 0.21 | 92 | 984.0 |
| 20260507033903 | 55 | 179 | 0.0 | 1.0 | 0.00 | 0.00 | 0.21 | 92 | 984.0 |
| 20260507033403 | 55 | 179 | 1.0 | 2.0 | 0.00 | 0.00 | 0.21 | 92 | 984.0 |
| 20260507032903 | 55 | 179 | 0.0 | 2.0 | 0.00 | 0.00 | 0.21 | 92 | 984.0 |
| 20260507032402 | 55 | 184 | 1.0 | 2.0 | 0.00 | 0.00 | 0.21 | 93 | 984.0 |
| 20260507031902 | 55 | 176 | 0.0 | 0.0 | 0.00 | 0.00 | 0.21 | 93 | 984.0 |
| 20260507031411 | 55 | 176 | 0.0 | 1.0 | 0.00 | 0.00 | 0.21 | 93 | 983.0 |
| 20260507030902 | 56 | 176 | 1.0 | 1.0 | 0.00 | 0.00 | 0.21 | 93 | 983.0 |
| 20260507030402 | 56 | 177 | 0.0 | 2.0 | 0.00 | 0.00 | 0.21 | 91 | 984.0 |
| 20260507025902 | 56 | 178 | 0.0 | 0.0 | 0.00 | 0.00 | 0.21 | 91 | 984.0 |
| 20260507024916 | 57 | 163 | 0.0 | 0.0 | 0.00 | 0.00 | 0.21 | 90 | 984.0 |
| 20260507024403 | 57 | 155 | 0.0 | 2.0 | 0.00 | 0.00 | 0.21 | 90 | 983.0 |
| 20260507023903 | 58 | 158 | 1.0 | 3.0 | 0.00 | 0.00 | 0.21 | 90 | 984.0 |
| 20260507023402 | 58 | 137 | 0.0 | 1.0 | 0.00 | 0.00 | 0.21 | 89 | 984.0 |
| 20260507022903 | 59 | 165 | 1.0 | 1.0 | 0.00 | 0.00 | 0.21 | 91 | 983.0 |
| 20260507022402 | 59 | 161 | 1.0 | 1.0 | 0.00 | 0.00 | 0.21 | 92 | 983.0 |
| 20260507021903 | 59 | 163 | 0.0 | 1.0 | 0.00 | 0.00 | 0.21 | 92 | 983.0 |
| 20260507021402 | 59 | 158 | 2.0 | 7.0 | 0.00 | 0.00 | 0.21 | 93 | 983.0 |
| 20260507020902 | 59 | 33 | 0.0 | 2.0 | 0.00 | 0.00 | 0.21 | 93 | 983.0 |
| 20260507020403 | 59 | 164 | 0.0 | 1.0 | 0.00 | 0.00 | 0.21 | 93 | 983.0 |
| 20260507015902 | 59 | 169 | 1.0 | 1.0 | 0.00 | 0.00 | 0.21 | 93 | 983.0 |
| 20260507015403 | 59 | 169 | 1.0 | 3.0 | 0.00 | 0.00 | 0.21 | 93 | 983.0 |
| 20260507014904 | 59 | 183 | 2.0 | 3.0 | 0.00 | 0.00 | 0.21 | 94 | 983.0 |
| 20260507014403 | 59 | 187 | 1.0 | 1.0 | 0.00 | 0.00 | 0.21 | 94 | 983.0 |
| 20260507013903 | 59 | 187 | 2.0 | 2.0 | 0.00 | 0.00 | 0.21 | 94 | 983.0 |
| 20260507013402 | 59 | 188 | 0.0 | 1.0 | 0.00 | 0.00 | 0.21 | 94 | 983.0 |
| 20260507012904 | 59 | 189 | 1.0 | 1.0 | 0.00 | 0.00 | 0.21 | 94 | 983.0 |
| 20260507012403 | 59 | 185 | 1.0 | 2.0 | 0.00 | 0.00 | 0.21 | 94 | 983.0 |
| 20260507011902 | 59 | 182 | 1.0 | 1.0 | 0.00 | 0.00 | 0.21 | 94 | 983.0 |
| 20260507011403 | 59 | 177 | 1.0 | 1.0 | 0.00 | 0.00 | 0.21 | 94 | 983.0 |
| 20260507010904 | 59 | 177 | 0.0 | 2.0 | 0.00 | 0.00 | 0.21 | 94 | 983.0 |
| 20260507010404 | 58 | 185 | 1.0 | 1.0 | 0.00 | 0.00 | 0.21 | 94 | 982.0 |
| 20260507005902 | 59 | 185 | 1.0 | 1.0 | 0.00 | 0.00 | 0.21 | 94 | 983.0 |
| 20260507005402 | 59 | 186 | 1.0 | 2.0 | 0.00 | 0.00 | 0.21 | 94 | 983.0 |
| 20260507004902 | 58 | 177 | 2.0 | 3.0 | 0.00 | 0.00 | 0.21 | 94 | 983.0 |
| 20260507004403 | 58 | 183 | 2.0 | 2.0 | 0.00 | 0.00 | 0.21 | 94 | 983.0 |
| 20260507003902 | 58 | 180 | 1.0 | 1.0 | 0.00 | 0.00 | 0.21 | 94 | 983.0 |
| 20260507003403 | 58 | 182 | 2.0 | 2.0 | 0.00 | 0.00 | 0.21 | 94 | 983.0 |
| 20260507002903 | 58 | 170 | 2.0 | 2.0 | 0.00 | 0.00 | 0.21 | 94 | 983.0 |
| 20260507002402 | 58 | 176 | 1.0 | 2.0 | 0.00 | 0.00 | 0.21 | 93 | 983.0 |
| 20260507001903 | 58 | 175 | 2.0 | 3.0 | 0.00 | 0.00 | 0.21 | 94 | 983.0 |
| 20260507001403 | 58 | 169 | 2.0 | 4.0 | 0.00 | 0.00 | 0.21 | 94 | 983.0 |
| 20260507000902 | 58 | 175 | 2.0 | 3.0 | 0.00 | 0.00 | 0.21 | 94 | 983.0 |
| 20260507000405 | 58 | 172 | 2.0 | 2.0 | 0.00 | 0.00 | 0.21 | 94 | 983.0 |
| 20260506235902 | 58 | 175 | 1.0 | 2.0 | 0.00 | 0.00 | 0.21 | 94 | 983.0 |
| 20260506235402 | 58 | 175 | 2.0 | 2.0 | 0.00 | 0.00 | 0.21 | 94 | 982.0 |
| 20260506234902 | 58 | 165 | 2.0 | 2.0 | 0.00 | 0.00 | 0.21 | 93 | 982.0 |
| 20260506234403 | 58 | 165 | 2.0 | 3.0 | 0.00 | 0.00 | 0.21 | 93 | 982.0 |
| 20260506233902 | 58 | 170 | 3.0 | 3.0 | 0.00 | 0.00 | 0.21 | 93 | 982.0 |
| 20260506233402 | 58 | 178 | 3.0 | 4.0 | 0.00 | 0.00 | 0.21 | 94 | 982.0 |
| 20260506232902 | 58 | 172 | 2.0 | 2.0 | 0.00 | 0.00 | 0.21 | 94 | 982.0 |
| 20260506232402 | 58 | 196 | 3.0 | 3.0 | 0.00 | 0.00 | 0.21 | 94 | 982.0 |
| 20260506231903 | 58 | 206 | 1.0 | 2.0 | 0.00 | 0.00 | 0.21 | 94 | 982.0 |
| 20260506231402 | 58 | 198 | 1.0 | 2.0 | 0.00 | 0.00 | 0.21 | 94 | 982.0 |
| 20260506230902 | 58 | 189 | 1.0 | 2.0 | 0.00 | 0.00 | 0.21 | 94 | 982.0 |
| 20260506230402 | 58 | 188 | 2.0 | 2.0 | 0.00 | 0.00 | 0.21 | 94 | 982.0 |
| 20260506225903 | 58 | 188 | 1.0 | 2.0 | 0.07 | 0.00 | 0.21 | 94 | 982.0 |
| 20260506225403 | 58 | 188 | 2.0 | 2.0 | 0.07 | 0.00 | 0.21 | 94 | 982.0 |
| 20260506224903 | 58 | 188 | 2.0 | 2.0 | 0.00 | 0.00 | 0.20 | 94 | 982.0 |
| 20260506224402 | 58 | 188 | 2.0 | 2.0 | 0.00 | 0.00 | 0.20 | 94 | 982.0 |
| 20260506223903 | 58 | 188 | 1.0 | 2.0 | 0.05 | 0.00 | 0.20 | 94 | 982.0 |
| 20260506223402 | 58 | 188 | 0.0 | 1.0 | 0.00 | 0.00 | 0.19 | 94 | 982.0 |
| 20260506222903 | 58 | 189 | 0.0 | 1.0 | 0.07 | 0.00 | 0.19 | 94 | 982.0 |
| 20260506222403 | 58 | 189 | 1.0 | 2.0 | 0.12 | 0.00 | 0.19 | 94 | 982.0 |
| 20260506221902 | 58 | 190 | 1.0 | 1.0 | 0.05 | 0.00 | 0.18 | 94 | 982.0 |
| 20260506221402 | 58 | 197 | 1.0 | 2.0 | 0.07 | 0.00 | 0.17 | 94 | 982.0 |
| 20260506220903 | 58 | 179 | 2.0 | 2.0 | 0.00 | 0.00 | 0.16 | 94 | 982.0 |
| 20260506220402 | 58 | 175 | 1.0 | 1.0 | 0.00 | 0.00 | 0.16 | 94 | 982.0 |
| 20260506215903 | 58 | 176 | 2.0 | 2.0 | 0.00 | 0.00 | 0.16 | 94 | 982.0 |
| 20260506215403 | 58 | 182 | 1.0 | 2.0 | 0.00 | 0.00 | 0.16 | 94 | 982.0 |
| 20260506214902 | 58 | 182 | 2.0 | 2.0 | 0.00 | 0.00 | 0.16 | 94 | 982.0 |
| 20260506214402 | 58 | 182 | 1.0 | 2.0 | 0.00 | 0.00 | 0.16 | 93 | 982.0 |
| 20260506213903 | 58 | 190 | 3.0 | 4.0 | 0.00 | 0.00 | 0.16 | 93 | 982.0 |
| 20260506213403 | 58 | 186 | 2.0 | 3.0 | 0.00 | 0.00 | 0.16 | 93 | 983.0 |
| 20260506212902 | 58 | 188 | 2.0 | 2.0 | 0.07 | 0.00 | 0.16 | 93 | 982.0 |
| 20260506212403 | 58 | 200 | 1.0 | 2.0 | 0.07 | 0.00 | 0.16 | 93 | 983.0 |
| 20260506211902 | 58 | 177 | 1.0 | 2.0 | 0.00 | 0.00 | 0.15 | 93 | 983.0 |
| 20260506211402 | 58 | 185 | 1.0 | 2.0 | 0.05 | 0.00 | 0.15 | 93 | 983.0 |
| 20260506210903 | 58 | 186 | 1.0 | 2.0 | 0.00 | 0.00 | 0.14 | 93 | 983.0 |
| 20260506210403 | 58 | 187 | 2.0 | 2.0 | 0.00 | 0.00 | 0.14 | 93 | 983.0 |
| 20260506205903 | 58 | 194 | 0.0 | 2.0 | 0.00 | 0.00 | 0.14 | 92 | 983.0 |
| 20260506205402 | 58 | 199 | 0.0 | 2.0 | 0.07 | 0.00 | 0.14 | 92 | 983.0 |
| 20260506204903 | 58 | 193 | 1.0 | 2.0 | 0.07 | 0.00 | 0.14 | 92 | 983.0 |
| 20260506204403 | 58 | 176 | 2.0 | 2.0 | 0.00 | 0.00 | 0.13 | 92 | 983.0 |
| 20260506203902 | 58 | 177 | 1.0 | 2.0 | 0.00 | 0.00 | 0.13 | 92 | 983.0 |
| 20260506203403 | 58 | 237 | 1.0 | 2.0 | 0.00 | 0.00 | 0.13 | 92 | 983.0 |
| 20260506202903 | 58 | 181 | 2.0 | 3.0 | 0.00 | 0.00 | 0.13 | 92 | 983.0 |
| 20260506202402 | 58 | 178 | 2.0 | 2.0 | 0.00 | 0.00 | 0.13 | 92 | 983.0 |
| 20260506201903 | 58 | 281 | 4.0 | 9.0 | 0.00 | 0.00 | 0.13 | 92 | 983.0 |
| 20260506201402 | 58 | 159 | 1.0 | 4.0 | 0.00 | 0.00 | 0.13 | 92 | 983.0 |
| 20260506200902 | 58 | 190 | 2.0 | 3.0 | 0.00 | 0.00 | 0.13 | 92 | 983.0 |
| 20260506200403 | 58 | 183 | 1.0 | 1.0 | 0.00 | 0.00 | 0.13 | 91 | 983.0 |
| 20260506195903 | 58 | 218 | 2.0 | 4.0 | 0.05 | 0.00 | 0.13 | 91 | 983.0 |
| 20260506195404 | 58 | 179 | 1.0 | 2.0 | 0.05 | 0.00 | 0.13 | 92 | 983.0 |
| 20260506194903 | 58 | 182 | 2.0 | 2.0 | 0.00 | 0.00 | 0.12 | 91 | 983.0 |
| 20260506194402 | 58 | 188 | 2.0 | 3.0 | 0.00 | 0.00 | 0.12 | 91 | 983.0 |
| 20260506193903 | 58 | 197 | 1.0 | 2.0 | 0.00 | 0.00 | 0.12 | 91 | 984.0 |
| 20260506193403 | 58 | 175 | 2.0 | 10.0 | 0.00 | 0.00 | 0.12 | 90 | 984.0 |
| 20260506192903 | 58 | 182 | 3.0 | 3.0 | 0.00 | 0.00 | 0.12 | 91 | 983.0 |
| 20260506192403 | 59 | 194 | 1.0 | 2.0 | 0.07 | 0.00 | 0.12 | 91 | 983.0 |
| 20260506191903 | 59 | 188 | 2.0 | 3.0 | 0.00 | 0.00 | 0.11 | 90 | 984.0 |
| 20260506191403 | 59 | 187 | 3.0 | 3.0 | 0.05 | 0.00 | 0.11 | 90 | 984.0 |
| 20260506190904 | 59 | 175 | 3.0 | 3.0 | 0.05 | 0.00 | 0.11 | 91 | 984.0 |
| 20260506190403 | 59 | 180 | 1.0 | 2.0 | 0.00 | 0.00 | 0.10 | 90 | 984.0 |
| 20260506185902 | 59 | 179 | 2.0 | 3.0 | 0.07 | 0.00 | 0.10 | 90 | 984.0 |
| 20260506185402 | 59 | 192 | 2.0 | 2.0 | 0.07 | 0.00 | 0.10 | 90 | 984.0 |
| 20260506184902 | 59 | 188 | 2.0 | 4.0 | 0.05 | 0.00 | 0.09 | 90 | 984.0 |
| 20260506184402 | 59 | 192 | 0.0 | 3.0 | 0.05 | 0.00 | 0.09 | 90 | 983.0 |
| 20260506183902 | 59 | 187 | 2.0 | 3.0 | 0.00 | 0.00 | 0.08 | 90 | 983.0 |
| 20260506183402 | 59 | 196 | 2.0 | 2.0 | 0.00 | 0.00 | 0.08 | 90 | 984.0 |
| 20260506182902 | 60 | 175 | 1.0 | 3.0 | 0.07 | 0.00 | 0.08 | 90 | 984.0 |
| 20260506182403 | 60 | 185 | 1.0 | 2.0 | 0.05 | 0.00 | 0.07 | 89 | 984.0 |
| 20260506181909 | 60 | 189 | 2.0 | 3.0 | 0.12 | 0.00 | 0.07 | 89 | 984.0 |
| 20260506181403 | 60 | 211 | 2.0 | 2.0 | 0.12 | 0.00 | 0.06 | 89 | 984.0 |
| 20260506180903 | 60 | 176 | 1.0 | 2.0 | 0.07 | 0.00 | 0.04 | 88 | 984.0 |
| 20260506180403 | 60 | 176 | 1.0 | 2.0 | 0.14 | 0.00 | 0.04 | 86 | 984.0 |
| 20260506175903 | 61 | 177 | 2.0 | 3.0 | 0.07 | 0.00 | 0.03 | 85 | 984.0 |
| 20260506175402 | 61 | 185 | 2.0 | 3.0 | 0.05 | 0.00 | 0.02 | 83 | 984.0 |
| 20260506174902 | 61 | 176 | 2.0 | 3.0 | 0.05 | 0.00 | 0.02 | 83 | 984.0 |
| 20260506174404 | 62 | 176 | 2.0 | 4.0 | 0.00 | 0.00 | 0.01 | 82 | 985.0 |
| 20260506173902 | 62 | 180 | 2.0 | 3.0 | 0.07 | 0.00 | 0.01 | 80 | 985.0 |
| 20260506173404 | 63 | 173 | 3.0 | 3.0 | 0.07 | 0.00 | 0.01 | 78 | 985.0 |
| 20260506172903 | 64 | 173 | 3.0 | 8.0 | 0.00 | 0.00 | 0.00 | 75 | 985.0 |
| 20260506172402 | 66 | 203 | 3.0 | 4.0 | 0.00 | 0.00 | 0.00 | 70 | 985.0 |
| 20260506171903 | 67 | 173 | 4.0 | 6.0 | 0.00 | 0.00 | 0.00 | 64 | 985.0 |
| 20260506171404 | 68 | 172 | 4.0 | 4.0 | 0.00 | 0.00 | 0.00 | 61 | 984.0 |
| 20260506170903 | 68 | 279 | 6.0 | 10.0 | 0.00 | 0.00 | 0.00 | 59 | 984.0 |
| 20260506170405 | 68 | 173 | 2.0 | 3.0 | 0.00 | 0.00 | 0.00 | 59 | 984.0 |
| 20260506165903 | 68 | 197 | 4.0 | 9.0 | 0.00 | 0.00 | 0.00 | 58 | 984.0 |
| 20260506165403 | 69 | 162 | 2.0 | 7.0 | 0.00 | 0.00 | 0.00 | 58 | 984.0 |
| 20260506164903 | 69 | 173 | 2.0 | 4.0 | 0.00 | 0.00 | 0.00 | 58 | 984.0 |
| 20260506164404 | 69 | 187 | 3.0 | 6.0 | 0.00 | 0.00 | 0.00 | 57 | 984.0 |
| 20260506163903 | 69 | 162 | 4.0 | 7.0 | 0.00 | 0.00 | 0.00 | 57 | 984.0 |
| 20260506163403 | 69 | 179 | 2.0 | 6.0 | 0.00 | 0.00 | 0.00 | 57 | 984.0 |
| 20260506162904 | 69 | 173 | 5.0 | 6.0 | 0.00 | 0.00 | 0.00 | 57 | 984.0 |
| 20260506162403 | 69 | 165 | 3.0 | 7.0 | 0.00 | 0.00 | 0.00 | 56 | 984.0 |
| 20260506161903 | 69 | 280 | 2.0 | 2.0 | 0.00 | 0.00 | 0.00 | 57 | 985.0 |
| 20260506161402 | 69 | 177 | 2.0 | 4.0 | 0.00 | 0.00 | 0.00 | 56 | 985.0 |
| 20260506160906 | 69 | 170 | 4.0 | 6.0 | 0.00 | 0.00 | 0.00 | 55 | 985.0 |
| 20260506160405 | 70 | 164 | 2.0 | 4.0 | 0.00 | 0.00 | 0.00 | 55 | 985.0 |
| 20260506155904 | 69 | 180 | 2.0 | 3.0 | 0.00 | 0.00 | 0.00 | 55 | 984.0 |
| 20260506155403 | 69 | 168 | 3.0 | 4.0 | 0.00 | 0.00 | 0.00 | 54 | 985.0 |
| 20260506154904 | 69 | 171 | 3.0 | 8.0 | 0.00 | 0.00 | 0.00 | 55 | 985.0 |
| 20260506154402 | 70 | 246 | 6.0 | 9.0 | 0.00 | 0.00 | 0.00 | 54 | 985.0 |
| 20260506153906 | 70 | 174 | 2.0 | 3.0 | 0.00 | 0.00 | 0.00 | 55 | 985.0 |
| 20260506153409 | 69 | 173 | 4.0 | 4.0 | 0.00 | 0.00 | 0.00 | 56 | 985.0 |
| 20260506152903 | 69 | 157 | 4.0 | 9.0 | 0.00 | 0.00 | 0.00 | 56 | 985.0 |
| 20260506152402 | 69 | 164 | 2.0 | 3.0 | 0.00 | 0.00 | 0.00 | 58 | 985.0 |
| 20260506151904 | 68 | 208 | 3.0 | 3.0 | 0.00 | 0.00 | 0.00 | 58 | 985.0 |
| 20260506151403 | 68 | 189 | 4.0 | 9.0 | 0.00 | 0.00 | 0.00 | 58 | 985.0 |
| 20260506150903 | 68 | 169 | 4.0 | 4.0 | 0.00 | 0.00 | 0.00 | 59 | 986.0 |
| 20260506150404 | 68 | 164 | 3.0 | 3.0 | 0.00 | 0.00 | 0.00 | 60 | 985.0 |
| 20260506145903 | 68 | 212 | 3.0 | 6.0 | 0.00 | 0.00 | 0.00 | 59 | 986.0 |
| 20260506145403 | 68 | 190 | 2.0 | 4.0 | 0.00 | 0.00 | 0.00 | 60 | 985.0 |
| 20260506144903 | 68 | 141 | 2.0 | 3.0 | 0.00 | 0.00 | 0.00 | 60 | 985.0 |
| 20260506144402 | 68 | 180 | 2.0 | 3.0 | 0.00 | 0.00 | 0.00 | 60 | 985.0 |
| 20260506143903 | 68 | 203 | 2.0 | 3.0 | 0.00 | 0.00 | 0.00 | 61 | 985.0 |
| 20260506143404 | 68 | 174 | 2.0 | 2.0 | 0.00 | 0.00 | 0.00 | 62 | 986.0 |
| 20260506142903 | 68 | 183 | 3.0 | 3.0 | 0.00 | 0.00 | 0.00 | 61 | 986.0 |
| 20260506142403 | 67 | 159 | 4.0 | 4.0 | 0.00 | 0.00 | 0.00 | 62 | 986.0 |
| 20260506141903 | 68 | 171 | 3.0 | 3.0 | 0.00 | 0.00 | 0.00 | 62 | 986.0 |
| 20260506141403 | 68 | 186 | 2.0 | 3.0 | 0.00 | 0.00 | 0.00 | 62 | 986.0 |
| 20260506140903 | 67 | 171 | 2.0 | 6.0 | 0.00 | 0.00 | 0.00 | 63 | 986.0 |
| 20260506140402 | 67 | 166 | 4.0 | 4.0 | 0.00 | 0.00 | 0.00 | 63 | 985.0 |
| 20260506135904 | 66 | 223 | 2.0 | 4.0 | 0.00 | 0.00 | 0.00 | 64 | 985.0 |
| 20260506135403 | 66 | 166 | 2.0 | 3.0 | 0.00 | 0.00 | 0.00 | 64 | 985.0 |
| 20260506134904 | 66 | 162 | 1.0 | 3.0 | 0.00 | 0.00 | 0.00 | 65 | 985.0 |
| 20260506134403 | 66 | 182 | 2.0 | 3.0 | 0.00 | 0.00 | 0.00 | 64 | 985.0 |
| 20260506133903 | 67 | 272 | 3.0 | 4.0 | 0.00 | 0.00 | 0.00 | 64 | 985.0 |
| 20260506133402 | 66 | 167 | 4.0 | 6.0 | 0.00 | 0.00 | 0.00 | 65 | 986.0 |
| 20260506132903 | 66 | 159 | 1.0 | 3.0 | 0.00 | 0.00 | 0.00 | 65 | 986.0 |
| 20260506132404 | 66 | 212 | 3.0 | 4.0 | 0.00 | 0.00 | 0.00 | 66 | 985.0 |
| 20260506131904 | 65 | 153 | 2.0 | 4.0 | 0.00 | 0.00 | 0.00 | 67 | 985.0 |
| 20260506131403 | 65 | 163 | 2.0 | 3.0 | 0.00 | 0.00 | 0.00 | 68 | 985.0 |
| 20260506130902 | 65 | 179 | 2.0 | 3.0 | 0.00 | 0.00 | 0.00 | 68 | 986.0 |
| 20260506130403 | 65 | 174 | 2.0 | 3.0 | 0.00 | 0.00 | 0.00 | 68 | 986.0 |
| 20260506125902 | 65 | 171 | 3.0 | 3.0 | 0.00 | 0.00 | 0.00 | 68 | 986.0 |
| 20260506125403 | 64 | 181 | 1.0 | 2.0 | 0.00 | 0.00 | 0.00 | 69 | 986.0 |
| 20260506124903 | 64 | 178 | 4.0 | 6.0 | 0.00 | 0.00 | 0.00 | 69 | 986.0 |
| 20260506124402 | 63 | 173 | 1.0 | 3.0 | 0.00 | 0.00 | 0.00 | 72 | 986.0 |
| 20260506123902 | 63 | 188 | 2.0 | 4.0 | 0.00 | 0.00 | 0.00 | 72 | 986.0 |
| 20260506123404 | 63 | 176 | 2.0 | 3.0 | 0.00 | 0.00 | 0.00 | 71 | 986.0 |
| 20260506122904 | 63 | 180 | 3.0 | 3.0 | 0.00 | 0.00 | 0.00 | 72 | 986.0 |
| 20260506122404 | 63 | 171 | 3.0 | 4.0 | 0.00 | 0.00 | 0.00 | 71 | 986.0 |
| 20260506121904 | 63 | 167 | 4.0 | 4.0 | 0.00 | 0.00 | 0.00 | 71 | 986.0 |
| 20260506121403 | 63 | 154 | 2.0 | 3.0 | 0.00 | 0.00 | 0.00 | 73 | 986.0 |
| 20260506120903 | 62 | 158 | 1.0 | 2.0 | 0.00 | 0.00 | 0.00 | 74 | 986.0 |
| 20260506120404 | 62 | 179 | 2.0 | 2.0 | 0.00 | 0.00 | 0.00 | 75 | 986.0 |
| 20260506115903 | 62 | 176 | 2.0 | 2.0 | 0.00 | 0.00 | 0.00 | 74 | 986.0 |
| 20260506115403 | 62 | 177 | 1.0 | 2.0 | 0.00 | 0.00 | 0.00 | 74 | 986.0 |
| 20260506114902 | 61 | 190 | 2.0 | 2.0 | 0.00 | 0.00 | 0.00 | 75 | 986.0 |
| 20260506114403 | 61 | 158 | 2.0 | 2.0 | 0.00 | 0.00 | 0.00 | 75 | 986.0 |
| 20260506113903 | 61 | 158 | 2.0 | 3.0 | 0.00 | 0.00 | 0.00 | 76 | 986.0 |
| 20260506113403 | 60 | 215 | 1.0 | 4.0 | 0.00 | 0.00 | 0.00 | 77 | 986.0 |
| 20260506112902 | 60 | 204 | 2.0 | 2.0 | 0.00 | 0.00 | 0.00 | 78 | 986.0 |
| 20260506112402 | 59 | 205 | 1.0 | 1.0 | 0.00 | 0.00 | 0.00 | 79 | 987.0 |
| 20260506111903 | 59 | 206 | 1.0 | 1.0 | 0.00 | 0.00 | 0.00 | 80 | 986.0 |
| 20260506111403 | 59 | 206 | 0.0 | 2.0 | 0.00 | 0.00 | 0.00 | 80 | 986.0 |
| 20260506110902 | 59 | 206 | 1.0 | 2.0 | 0.00 | 0.00 | 0.00 | 80 | 986.0 |
| 20260506110402 | 59 | 207 | 1.0 | 1.0 | 0.00 | 0.00 | 0.00 | 80 | 987.0 |
| 20260506105904 | 59 | 200 | 2.0 | 2.0 | 0.00 | 0.00 | 0.00 | 80 | 987.0 |
| 20260506105403 | 58 | 212 | 1.0 | 3.0 | 0.00 | 0.00 | 0.00 | 80 | 987.0 |
| 20260506104903 | 58 | 198 | 2.0 | 3.0 | 0.00 | 0.00 | 0.00 | 80 | 986.0 |
| 20260506104403 | 58 | 187 | 2.0 | 3.0 | 0.00 | 0.00 | 0.00 | 80 | 986.0 |
| 20260506103902 | 58 | 186 | 1.0 | 2.0 | 0.00 | 0.00 | 0.00 | 80 | 986.0 |
| 20260506103403 | 58 | 187 | 1.0 | 2.0 | 0.00 | 0.00 | 0.00 | 81 | 986.0 |
| 20260506102905 | 58 | 197 | 1.0 | 2.0 | 0.00 | 0.00 | 0.00 | 81 | 986.0 |
| 20260506102402 | 58 | 196 | 1.0 | 1.0 | 0.00 | 0.00 | 0.00 | 81 | 986.0 |
| 20260506101904 | 58 | 199 | 1.0 | 1.0 | 0.00 | 0.00 | 0.00 | 81 | 986.0 |
| 20260506101403 | 58 | 212 | 2.0 | 2.0 | 0.00 | 0.00 | 0.00 | 81 | 986.0 |
| 20260506100902 | 58 | 202 | 2.0 | 2.0 | 0.00 | 0.00 | 0.00 | 81 | 986.0 |
| 20260506100403 | 58 | 204 | 1.0 | 1.0 | 0.00 | 0.00 | 0.00 | 80 | 986.0 |
| 20260506095902 | 58 | 205 | 1.0 | 1.0 | 0.00 | 0.00 | 0.00 | 80 | 986.0 |
| 20260506095403 | 58 | 206 | 0.0 | 1.0 | 0.00 | 0.00 | 0.00 | 80 | 986.0 |
| 20260506094904 | 58 | 222 | 2.0 | 2.0 | 0.00 | 0.00 | 0.00 | 80 | 986.0 |
| 20260506094404 | 58 | 273 | 1.0 | 4.0 | 0.00 | 0.00 | 0.00 | 80 | 986.0 |
| 20260506093903 | 58 | 207 | 1.0 | 1.0 | 0.00 | 0.00 | 0.00 | 79 | 986.0 |
| 20260506093403 | 58 | 217 | 1.0 | 2.0 | 0.00 | 0.00 | 0.00 | 79 | 986.0 |
| 20260506092903 | 58 | 218 | 1.0 | 2.0 | 0.00 | 0.00 | 0.00 | 79 | 986.0 |
| 20260506092403 | 58 | 177 | 1.0 | 2.0 | 0.00 | 0.00 | 0.00 | 79 | 986.0 |
| 20260506091903 | 58 | 159 | 1.0 | 2.0 | 0.00 | 0.00 | 0.00 | 79 | 986.0 |
| 20260506091403 | 58 | 155 | 1.0 | 2.0 | 0.00 | 0.00 | 0.00 | 79 | 986.0 |
| 20260506090903 | 58 | 155 | 1.0 | 1.0 | 0.00 | 0.00 | 0.00 | 78 | 986.0 |
| 20260506090403 | 58 | 277 | 4.0 | 7.0 | 0.00 | 0.00 | 0.00 | 78 | 986.0 |
| 20260506085904 | 58 | 192 | 1.0 | 2.0 | 0.00 | 0.00 | 0.00 | 78 | 986.0 |
| 20260506085403 | 58 | 190 | 1.0 | 2.0 | 0.00 | 0.00 | 0.00 | 78 | 986.0 |
| 20260506084902 | 58 | 189 | 2.0 | 6.0 | 0.00 | 0.00 | 0.00 | 78 | 986.0 |
| 20260506084402 | 58 | 211 | 1.0 | 1.0 | 0.00 | 0.00 | 0.00 | 78 | 986.0 |
| 20260506083903 | 58 | 212 | 0.0 | 1.0 | 0.00 | 0.00 | 0.00 | 78 | 986.0 |
| 20260506083404 | 58 | 212 | 1.0 | 1.0 | 0.00 | 0.00 | 0.00 | 78 | 986.0 |
| 20260506082903 | 58 | 226 | 3.0 | 3.0 | 0.00 | 0.00 | 0.00 | 78 | 986.0 |
| 20260506082403 | 58 | 201 | 1.0 | 3.0 | 0.00 | 0.00 | 0.00 | 77 | 986.0 |
| 20260506081903 | 58 | 195 | 2.0 | 2.0 | 0.00 | 0.00 | 0.00 | 77 | 986.0 |
| 20260506081402 | 58 | 221 | 2.0 | 2.0 | 0.00 | 0.00 | 0.00 | 77 | 986.0 |
| 20260506080905 | 58 | 184 | 0.0 | 2.0 | 0.00 | 0.00 | 0.00 | 77 | 986.0 |
| 20260506080402 | 58 | 278 | 3.0 | 4.0 | 0.00 | 0.00 | 0.00 | 77 | 986.0 |
| 20260506073402 | 58 | 182 | 2.0 | 1.0 | 0.00 | 0.00 | 0.00 | 77 | 986.0 |
| 20260506072903 | 58 | 181 | 1.0 | 1.0 | 0.00 | 0.00 | 0.00 | 77 | 986.0 |